Location: Marne
(34.0056°N, 117.9064°W)
Time: 21:57:07
(UTC+00:00)

COSMO-SKYMED 1 - Pass Details

Date: 18 January 2020
Orbit: 621 x 623 km, 97.9° (Epoch: 20 February)

Event Time Altitude Azimuth Distance (km) Brightness Sun altitude
Rises 01:47:06 0° 13° (NNE) 2,906 5.7 -8.5°
Reaches altitude 10° 01:49:18 10° 15° (NNE) 1,996 4.8 -8.9°
Maximum altitude 01:53:39 78° 102° (ESE) 639 2.5 -9.8°
Drops below altitude 10° 01:57:57 10° 189° (S) 1,981 5.5 -10.6°
Sets 02:00:08 0° 190° (S) 2,883 6.4 -11.1°
